www.pogodaiklimat.ru

Погода и климат >> Архив погоды >> Россия >> Ставропольский край >> Светлоград


ПОГОДА в Светлограде

  • Прогноз погоды в Светлограде
  • Монитор погоды в Светлограде

АРХИВ ПОГОДЫ в Светлограде

Время (UTC), дата Ветер
(напр.,м/с)
 
Видим.   Явления Облачность Т
(С)
Тd
(С)
f
(%)
Тe
(С)
Тes
(С)
Комфортность P
(гПа)
Po
(гПа)
Тmin
(С)
Tmax
(С)
R
(мм)
R24
(мм)
S
(см)
12 12.08 З 3 20 км 6/6 1000 м
[Cu med, cong]
+30.3 +7.1 23 +29 +32 жарко 1015.1 999.2
15 12.08 СЗ 2
{10}
20 км 4/4 1000 м
[Cu med, cong]
+29.0 +7.8 26 +28 +29 жарко 1015.2 999.2 +30.5
18 12.08 В 1 20 км 3/0
[Ci fib]
+20.8 +9.6 49 +24 +24 комфорт 1017.2 1000.7
21 12.08 штиль 0 20 км 1/0
[Ci fib]
+17.3 +9.0 58 +17 +17 1018.2 1001.6
00 13.08 В 1 20 км ясно +17.1 +5.9 48 +18 +18 1018.8 1002.1
03 13.08 штиль 0 20 км ясно +12.6 +7.4 71 +12 +13 1019.7 1002.8 +12.1
06 13.08 С 2 20 км ясно +24.3 +3.5 26 +24 +33 комфорт 1019.2 1002.9
09 13.08 С 2 20 км ясно +27.5 +1.9 19 +26 +42 жарко 1018.1 1002.0
12 13.08 С 2 20 км ясно +29.5 -2.5 12 +26 +36 жарко 1016.7 1000.7
15 13.08 СВ 2 20 км ясно +28.4 +1.3 17 +26 +27 жарко 1016.2 1000.2 +30.1
18 13.08 ЮВ 2 20 км ясно +22.1 +4.0 31 +22 +22 комфорт 1017.6 1001.2
21 13.08 В 2 20 км ясно +20.5 +4.8 36 +22 +22 комфорт 1017.0 1000.6
00 14.08 штиль 0 20 км ясно +15.0 +6.1 55 +15 +15 1017.2 1000.5
03 14.08 штиль 0 20 км ясно +12.7 +6.4 65 +12 +13 1017.7 1000.8 +12.2
06 14.08 В 3 20 км ясно +26.3 +4.7 25 +25 +33 комфорт 1016.5 1000.4
09 14.08 В 2 20 км ясно +30.2 +3.4 18 +28 +44 жарко 1014.8 998.9
12 14.08 СВ 3
{12}
20 км ясно +32.4 +0.8 13 +29 +37 жарко 1013.0 997.2
15 14.08 В 3 20 км ясно +30.8 -0.4 13 +28 +28 жарко 1012.5 996.6 +32.7
18 14.08 В 1 20 км ясно +19.5 +3.6 35 +21 +21 комфорт 1013.7 997.3
21 14.08 В 1 20 км ясно +20.3 +1.0 28 +22 +22 комфорт 1013.0 996.6
00 15.08 В 1 20 км ясно +18.4 +3.6 37 +20 +20 1012.6 996.1
03 15.08 В 1 20 км ясно +16.4 +5.5 48 +17 +18 1012.7 996.1 +16.0
06 15.08 В 4-10
{10}
20 км ясно +26.0 +1.7 21 +25 +30 комфорт 1012.0 995.9
09 15.08 В 5-10
{13}
20 км ясно +31.4 +0.1 13 +28 +37 жарко 1010.5 994.7
12 15.08 В 5-11
{12}
20 км ясно +33.9 -1.6 10 +30 +35 жарко 1008.9 993.3
15 15.08 В 4-12
{13}
20 км ясно +32.0 -0.2 13 +29 +29 жарко 1008.3 992.6 +34.2
18 15.08 В 1
{12}
20 км ясно +26.3 +4.2 24 +25 +25 комфорт 1009.1 993.1
21 15.08 В 1 20 км ясно +21.6 +7.8 41 +23 +23 комфорт 1010.2 993.9
00 16.08 ЮВ 3 20 км ясно +18.7 +12.4 67 +20 +20 1009.8 993.4
03 16.08 Ю 1 20 км 10/10 1000 м
[Sc]
+19.8 +15.0 74 +23 +23 комфорт 1010.0 993.7 +18.6
06 16.08 В 3 20 км ясно +25.2 +16.3 58 +29 +36 душно 1008.9 992.9
09 16.08 В 3 20 км ясно +29.5 +16.2 45 +33 +46 душно 1007.2 991.4
12 16.08 ЮВ 3 20 км 4/4 1000 м
[Cu med, cong]
+31.9 +15.8 38 +35 +39 очень
душно
1006.1 990.4
15 16.08 ЮВ 3 20 км 8/5 1000 м
[Cu Sc Ci fib]
+32.0 +15.8 38 +35 +35 очень
душно
1005.8 990.2 +32.1
18 16.08 В 2 20 км 8/8 600 м
[Cu Sc]
+27.2 +15.7 49 +30 +30 душно 1006.1 990.2
21 16.08 ЮВ 1 20 км 9/9 600 м
[Cu Sc]
+25.3 +12.4 45 +27 +27 жарко 1007.0 991.0
00 17.08 В 3 20 км 10/10 600 м
[Sc]
+23.1 +13.8 56 +27 +27 душно 1007.0 991.0
03 17.08 ЮВ 1 20 км 8/8 600 м
[Cu Sc Ci fib]
+22.3 +15.1 64 +26 +26 жарко 1007.5 991.3 +21.5
06 17.08 ЮЗ 2 20 км в посл. час гроза 9/4 600 м
[Sc diur, vesp Ci fib]
+26.2 +18.1 61 +31 +35 очень
душно
1007.3 991.4
09 17.08 З 2 20 км {гроза} 8/4 600 м
[Cu Sc Ci fib]
+30.6 +16.8 44 +34 +42 очень
душно
1007.2 991.5
12 17.08 СЗ 1 20 км {гроза} 10/10 1000 м
[Sc]
+30.2 +16.3 43 +33 +33 душно 1008.1 992.4
15 17.08 СЗ 1 20 км 10/4 1000 м
[Sc Ci fib]
+29.3 +17.5 49 +33 +34 душно 1008.5 993.0 +30.6 0.0
18 17.08 ЮВ 1 20 км 3/3 600 м
[Sc Ci fib]
+23.8 +17.3 67 +28 +28 душно 1010.0 993.9
21 17.08 штиль 0 20 км 8/8 600 м
[Sc]
+21.8 +17.5 77 +26 +26 душно 1009.3 993.1
00 18.08 штиль 0 20 км 3/3 600 м
[Sc]
+19.3 +16.7 85 +21 +21 комфорт 1008.9 992.6
03 18.08 СЗ 1 20 км 8/0
[Ci fib]
+19.1 +16.2 83 +22 +22 комфорт 1009.2 992.8 +18.5
06 18.08 З 1 20 км 10/10 1000 м
[Sc]
+24.7 +17.3 63 +29 +29 душно 1008.6 992.5
09 18.08 З 2 20 км 8/6 600 м
[Sc diur, vesp Ci fib]
+31.8 +15.1 36 +34 +39 душно 1007.5 991.9
12 18.08 С 2 20 км 6/6 1000 м
[Cu hum]
+34.6 +12.5 26 +35 +38 очень
жарко
1006.8 991.3
15 18.08 СЗ 3 20 км 3/3 1000 м
[Cu hum]
+33.3 +12.3 28 +34 +34 очень
жарко
1007.0 991.4 +35.4
18 18.08 З 2 20 км ясно +26.1 +13.9 47 +28 +28 жарко 1010.0 994.0
21 18.08 Ю 1 20 км 8/8 600 м
[Sc]
+23.4 +14.9 59 +27 +27 душно 1010.9 994.7
00 19.08 штиль 0 20 км ясно +21.1 +16.8 76 +25 +25 комфорт 1011.4 995.2
03 19.08 ЮЗ 2 20 км 3/3 1000 м
[Cu hum Ci fib]
+21.5 +18.2 81 +26 +26 душно 1013.0 996.7 +20.1
06 19.08 З 2 20 км 8/5 1000 м
[Cu med, cong Ci fib]
+27.0 +17.3 55 +31 +35 душно 1013.3 997.3
09 19.08 З 4 20 км 6/3 1000 м
[Cu med, cong Ci]
+32.6 +14.1 33 +34 +41 очень
жарко
1013.4 997.7

 

Местоположение метеостанции Светлоград (Ставропольский край, Россия): широта 45.35 долгота 42.85 высота над уровнем моря 141 м.

В архиве по умолчанию представлена погода в Светлограде за последнюю неделю. Архивные данные за месяц целиком и за предыдущие месяцы, начиная с января 2011 года, Вы можете получить, выбрав интересующий диапазон дат из раскрывающегося списка и нажав кнопку "Ввод!".


*Определитесь, кто Вы:
робот инопланетянин человек

Внимание! Время в таблицах - всемирное. Для получения местного времени необходимо прибавить поправку, которая равна 3 ч.

Смотрите также архив погоды в соседних городах и на ближайших метеорологических станциях:

Погода в Благодарном (Ставропольский край, Россия) (55 км)
Погода в Ставрополе (Ставропольский край, Россия) (66 км)
Погода в Александровском (Ставропольский край, Россия) (71 км)
Погода в Дивном (Ставропольский край, Россия) (74 км)
Погода в Изобильном (Ставропольский край, Россия) (90 км)
Погода в Городовиковске (Калмыкия, Россия) (105 км)
Погода в Арзгире (Ставропольский край, Россия) (106 км)
Погода в Невинномысске (Ставропольский край, Россия) (106 км)
Погода в Буденновске (Ставропольский край, Россия) (119 км)
Погода в Красногвардейском (Ставропольский край, Россия) (119 км)

Пояснения к столбцам:

Ветер - указаны скорость ветра в м/с - средняя за 10 мин, порывы в срок и между сроками (в фигурных скобках) и направление, откуда дует ветер: С - северный, СВ - северо-восточный, В - восточный, ЮВ - юго-восточный, Ю - южный, ЮЗ - юго-западный, З - западный, СЗ - северо-западный.
Видимость - горизонтальная дальность видимости в метрах или километрах. При видимости от 1 до 10 км при отсутствии осадков обычно наблюдается дымка, при ухудшении видимости до 1 км и менее - туман. В сухую погоду видимость может ухудшаться дымом, пылью или мглою.
Явления - указаны атмосферные явления, наблюдавшиеся в срок или в последний час перед сроком; фигурными скобками обозначены явления, наблюдавшиеся между сроками (за 1-3 часа до срока); квадратными скобками обозначены град или гололедные отложения с указанием их диаметра в мм.
Облачность - указаны через наклонную черту общая и нижняя облачность в баллах и высота нижней границы облаков в метрах; квадратными скобками обозначены формы облаков: Ci - перистые, Cs - перисто-слоистые, Cc - перисто-кучевые, Ac - высококучевые, As - высокослоистые, Sc - слоисто-кучевые, Ns - слоисто-дождевые, Cu - кучевые, Cb - кучево-дождевые. Подробнее классификацию облаков см. в Атласе облаков (PDF).
T - Температура воздуха - температура, измеренная на высоте 2 м над землей.
Td - Температура точки росы - температура, при понижении до которой содержащийся в воздухе водяной пар достигнет насыщения.
f - Относительная влажность воздуха - влажноcть воздуха, измеренная на высоте 2 м над землей.
Te - Эффективная температура - температура, которую ощущает одетый по сезону человек в тени. Характеристика душности погоды. При расчете учитывается влияние влажности воздуха и скорости ветра на теплоощущения человека.
Tes - Эффективная температура на солнце - температура, которую ощущает человек, с поправкой на солнечный нагрев. Характеристика знойности погоды. Зависит от высоты солнца над горизонтом, облачности и скорости ветра. Ночью, в пасмурную погоду, а также при ветре 12 м/с и более поправка равна нулю.
P - Атмосферное давление - приведенное к уровню моря атмосферное давление.
Po - Атмосферное давление - измеренное на уровне метеостанции атмосферное давление.
Tmin - Минимальная температура - минимум температуры воздуха на высоте 2 м над землей.
Tmax - Максимальная температура - максимум температуры воздуха на высоте 2 м над землей.
R - Количество осадков - Количество выпавших осадков за период времени, мм. При наведении курсора мыши на число - период времени, за который выпало указанное количество осадков.
R24 - Количество осадков - Количество выпавших осадков за 24 часа, мм.
S - Снежный покров - Высота снежного покрова, см. При наведении курсора мыши на число - состояние снежного покрова и степень покрытия местности в баллах.